When you browse on this site, cookies collect data to enhance your experience and personalize the content and advertising you see.
Visit our Privacy Policy to learn more. By continuing to use the site, you agree to this use of cookies and data.
  • En España
  • Lista de países
  • Para 7 días
  • Temperatura del agua
  • El tiempo en el mapa
  • Informadores
  • user-avatar
    Iniciar sesión

    Tiempo cada hora Djibouti

    Hoy, 17 Febrero, Lunes

    Tiempo Temperatura Precipitaciones Viento Presión Humedad
    00:00 +26°C° 0 mm 4 mps 759 mmHg 78%
    01:00 +26°C° 0 mm 4 mps 759 mmHg 78%
    02:00 +26°C° 0 mm 5 mps 758 mmHg 78%
    03:00 +26°C° 0 mm 5 mps 758 mmHg 77%
    04:00 +26°C° 0 mm 5 mps 758 mmHg 77%
    05:00 +26°C° 0 mm 5 mps 759 mmHg 78%
    06:00 +26°C° 0 mm 5 mps 759 mmHg 78%
    07:00 +27°C° 0 mm 5 mps 759 mmHg 73%
    08:00 +27°C° 0 mm 6 mps 760 mmHg 68%
    09:00 +28°C° 0 mm 6 mps 760 mmHg 62%
    10:00 +29°C° 0 mm 6 mps 760 mmHg 59%
    11:00 +30°C° 0 mm 6 mps 759 mmHg 55%
    12:00 +32°C° 0 mm 6 mps 759 mmHg 52%
    13:00 +32°C° 0 mm 6 mps 758 mmHg 52%
    14:00 +32°C° 0 mm 6 mps 757 mmHg 53%
    15:00 +32°C° 0 mm 6 mps 757 mmHg 54%
    16:00 +30°C° 0 mm 5 mps 757 mmHg 59%
    17:00 +29°C° 0 mm 5 mps 757 mmHg 63%
    18:00 +28°C° 0 mm 5 mps 757 mmHg 68%
    19:00 +28°C° 0 mm 5 mps 758 mmHg 70%
    20:00 +27°C° 0 mm 5 mps 758 mmHg 72%
    21:00 +27°C° 0 mm 5 mps 758 mmHg 75%
    22:00 +27°C° 0 mm 5 mps 758 mmHg 76%
    23:00 +27°C° 0 mm 5 mps 758 mmHg 77%

    Mañana, 18 Febrero, Martes

    Tiempo Temperatura Precipitaciones Viento Presión Humedad
    00:00 +27°C° 0 mm 5 mps 758 mmHg 77%
    01:00 +27°C° 0 mm 5 mps 758 mmHg 76%
    02:00 +27°C° 0 mm 5 mps 757 mmHg 74%
    03:00 +27°C° 0 mm 5 mps 757 mmHg 73%
    04:00 +27°C° 0 mm 5 mps 758 mmHg 74%
    05:00 +26°C° 0 mm 5 mps 758 mmHg 75%
    06:00 +26°C° 0 mm 5 mps 759 mmHg 76%
    07:00 +27°C° 0 mm 5 mps 759 mmHg 71%
    08:00 +28°C° 0 mm 5 mps 760 mmHg 67%
    09:00 +28°C° 0 mm 6 mps 761 mmHg 62%
    10:00 +29°C° 0 mm 6 mps 760 mmHg 60%
    11:00 +30°C° 0 mm 5 mps 760 mmHg 57%
    12:00 +30°C° 0 mm 5 mps 759 mmHg 55%
    13:00 +30°C° 0 mm 5 mps 759 mmHg 54%
    14:00 +32°C° 0 mm 5 mps 758 mmHg 53%
    15:00 +32°C° 0 mm 5 mps 757 mmHg 52%
    16:00 +30°C° 0 mm 5 mps 758 mmHg 56%
    17:00 +29°C° 0 mm 4 mps 758 mmHg 61%
    18:00 +28°C° 0 mm 4 mps 758 mmHg 66%
    19:00 +28°C° 0 mm 4 mps 758 mmHg 69%
    20:00 +27°C° 0 mm 4 mps 759 mmHg 72%
    21:00 +27°C° 0 mm 4 mps 759 mmHg 74%
    22:00 +27°C° 0 mm 4 mps 759 mmHg 75%
    23:00 +27°C° 0 mm 4 mps 759 mmHg 76%

    Pasado mañana, 19 Febrero, Miércoles

    Tiempo Temperatura Precipitaciones Viento Presión Humedad
    00:00 +27°C° 0 mm 5 mps 759 mmHg 77%
    01:00 +27°C° 0 mm 4 mps 758 mmHg 77%
    02:00 +27°C° 0 mm 4 mps 758 mmHg 78%
    03:00 +27°C° 0 mm 4 mps 758 mmHg 78%
    04:00 +26°C° 0 mm 4 mps 758 mmHg 78%
    05:00 +26°C° 0 mm 4 mps 758 mmHg 78%
    06:00 +26°C° 0 mm 4 mps 758 mmHg 78%
    07:00 +27°C° 0 mm 4 mps 759 mmHg 72%
    08:00 +28°C° 0 mm 4 mps 759 mmHg 66%
    09:00 +28°C° 0 mm 4 mps 760 mmHg 60%
    10:00 +29°C° 0 mm 4 mps 759 mmHg 56%
    11:00 +32°C° 0 mm 4 mps 759 mmHg 53%
    12:00 +33°C° 0 mm 4 mps 758 mmHg 49%
    13:00 +33°C° 0 mm 5 mps 758 mmHg 50%
    14:00 +32°C° 0 mm 5 mps 757 mmHg 52%
    15:00 +32°C° 0 mm 5 mps 756 mmHg 54%
    16:00 +30°C° 0 mm 5 mps 756 mmHg 58%
    17:00 +29°C° 0 mm 4 mps 756 mmHg 63%
    18:00 +29°C° 0 mm 4 mps 756 mmHg 67%
    19:00 +28°C° 0 mm 4 mps 757 mmHg 69%
    20:00 +28°C° 0 mm 4 mps 757 mmHg 70%
    21:00 +27°C° 0 mm 3 mps 757 mmHg 71%
    22:00 +27°C° 0 mm 3 mps 757 mmHg 73%
    23:00 +27°C° 0 mm 3 mps 757 mmHg 75%

    20 Febrero, Jueves

    Tiempo Temperatura Precipitaciones Viento Presión Humedad
    00:00 +26°C° 0 mm 3 mps 757 mmHg 76%
    01:00 +26°C° 0 mm 3 mps 757 mmHg 76%
    02:00 +26°C° 0 mm 3 mps 757 mmHg 77%
    03:00 +26°C° 0 mm 3 mps 756 mmHg 77%
    04:00 +26°C° 0 mm 3 mps 757 mmHg 76%
    05:00 +26°C° 0 mm 2 mps 757 mmHg 75%
    06:00 +26°C° 0 mm 2 mps 757 mmHg 74%
    07:00 +27°C° 0 mm 2 mps 758 mmHg 71%
    08:00 +27°C° 0 mm 2 mps 759 mmHg 68%
    09:00 +28°C° 0 mm 2 mps 759 mmHg 65%
    10:00 +29°C° 0 mm 2 mps 759 mmHg 62%
    11:00 +30°C° 0 mm 2 mps 759 mmHg 58%
    12:00 +31°C° 0 mm 3 mps 758 mmHg 54%
    13:00 +31°C° 0 mm 3 mps 758 mmHg 52%
    14:00 +33°C° 0 mm 3 mps 757 mmHg 51%
    15:00 +33°C° 0 mm 4 mps 756 mmHg 49%
    16:00 +31°C° 0 mm 3 mps 756 mmHg 53%
    17:00 +30°C° 0 mm 3 mps 757 mmHg 57%
    18:00 +29°C° 0 mm 3 mps 757 mmHg 61%
    19:00 +29°C° 0 mm 3 mps 757 mmHg 63%
    20:00 +28°C° 0 mm 3 mps 758 mmHg 65%
    21:00 +28°C° 0 mm 3 mps 758 mmHg 66%
    22:00 +28°C° 0 mm 3 mps 758 mmHg 68%
    23:00 +28°C° 0 mm 2 mps 758 mmHg 69%

    21 Febrero, Viernes

    Tiempo Temperatura Precipitaciones Viento Presión Humedad
    00:00 +28°C° 0 mm 2 mps 758 mmHg 71%
    01:00 +27°C° 0 mm 2 mps 758 mmHg 73%
    02:00 +27°C° 0 mm 2 mps 757 mmHg 75%
    03:00 +27°C° 0 mm 2 mps 757 mmHg 77%
    04:00 +27°C° 0 mm 1 mps 757 mmHg 77%
    05:00 +27°C° 0 mm 1 mps 758 mmHg 78%
    06:00 +27°C° 0 mm 1 mps 758 mmHg 78%
    07:00 +27°C° 0 mm 1 mps 759 mmHg 75%
    08:00 +28°C° 0 mm 1 mps 759 mmHg 73%
    09:00 +28°C° 0 mm 1 mps 760 mmHg 70%
    16:00 +32°C° 0 mm 4 mps 757 mmHg 64%
    17:00 +30°C° 0 mm 5 mps 757 mmHg 67%
    18:00 +29°C° 0 mm 5 mps 757 mmHg 71%
    19:00 +29°C° 0 mm 4 mps 758 mmHg 73%
    20:00 +28°C° 0 mm 3 mps 758 mmHg 75%
    21:00 +28°C° 0 mm 3 mps 758 mmHg 77%
    22:00 +28°C° 0 mm 3 mps 758 mmHg 78%
    23:00 +27°C° 0 mm 3 mps 758 mmHg 79%

    22 Febrero, Sábado

    Tiempo Temperatura Precipitaciones Viento Presión Humedad
    00:00 +27°C° 0 mm 3 mps 758 mmHg 80%
    01:00 +27°C° 0 mm 2 mps 758 mmHg 81%
    02:00 +27°C° 0 mm 2 mps 757 mmHg 81%
    03:00 +27°C° 0 mm 2 mps 757 mmHg 82%
    04:00 +27°C° 0.1 mm 2 mps 757 mmHg 82%
    05:00 +27°C° 0.1 mm 2 mps 758 mmHg 82%
    06:00 +27°C° 0.1 mm 3 mps 758 mmHg 82%
    07:00 +27°C° 0 mm 3 mps 759 mmHg 79%
    08:00 +28°C° 0 mm 3 mps 759 mmHg 76%
    09:00 +28°C° 0 mm 4 mps 760 mmHg 73%
    10:00 +29°C° 0 mm 4 mps 760 mmHg 69%
    11:00 +30°C° 0 mm 4 mps 759 mmHg 64%
    12:00 +32°C° 0 mm 4 mps 759 mmHg 60%
    13:00 +32°C° 0 mm 4 mps 758 mmHg 58%
    14:00 +32°C° 0 mm 4 mps 758 mmHg 57%
    15:00 +32°C° 0 mm 4 mps 757 mmHg 55%
    16:00 +30°C° 0 mm 4 mps 757 mmHg 59%
    17:00 +30°C° 0 mm 4 mps 757 mmHg 63%
    18:00 +29°C° 0 mm 5 mps 757 mmHg 67%
    19:00 +28°C° 0 mm 4 mps 758 mmHg 71%
    20:00 +28°C° 0 mm 4 mps 758 mmHg 74%
    21:00 +27°C° 0 mm 4 mps 758 mmHg 78%
    22:00 +28°C° 0 mm 4 mps 758 mmHg 78%
    23:00 +28°C° 0 mm 4 mps 758 mmHg 78%
    Mostrar más